Погода в Бедфорде

США     42°56′47″N   71°30′58″W
темп.,
°C
ветер,
м/с
пор.,
м/с
влажн.,
%
обл.,
%
осадки,
мм/ч
давл.,
гПа
погр.,
м
17 октября, вс
вс1723:00+14зсз41291100 3.5 1004693
02:00+13з3897100 7.7 1003589
05:00+11зсз4119146 1.6 1004514
08:00+10зсз39910 1.6 1005480
11:00+15сз58550 0.0 10051230
14:00+17зсз574468 0.0 10042200
17:00+14зсз365919 0.0 1004794
20:00+10з310845 0.1 1006392
18 октября, пн
пн1823:00+10зсз4107679 0.0 1006632
02:00+9сз4976100 0.0 1006778
05:00+8сз49735 0.0 1007690
08:00+6сз411715 0.0 1008839
11:00+11сз69505 0.0 10081454
14:00+12сз694290 0.0 10072170
17:00+9сз495997 0.0 10081442
20:00+6сз511715 0.0 1010855
19 октября, вт
вт1923:00+5сз5117140 0.0 1011855
02:00+6зсз41067100 0.0 10111168
05:00+4зсз4117155 0.0 1012952
08:00+4зсз4127344 0.0 10131241
11:00+9зсз511475 0.0 10111382
14:00+14зсз613375 0.0 10091838
17:00+13зсз514475 0.0 10081735
20:00+9сз38635 0.0 1010334
20 октября, ср
ср2023:00+9зюз006712 0.0 101013
02:00+6зюз1181100 0.0 101110
05:00+6з11900 0.0 101211
08:00+7з128563 0.0 101354
11:00+15сз48540 0.0 10131149
14:00+18сз584915 0.0 10121468
17:00+16зсз48655 0.0 1013800
20:00+11з11905 0.0 101510
21 октября, чт
чт2123:00+10сз11945 0.0 101510
02:00+9сз11961 0.0 101610
05:00+9юз01966 0.0 101510
08:00+10ююз119261 0.0 101623
11:00+19ююз485611 0.0 1014841
14:00+21юз594592 0.0 10121282
17:00+19юз41055100 0.0 1011795
20:00+16ююз31165100 0.0 1011421